CAPE
0 1 0 0 0 0 1 0 0 0 0 0 0 0 0 0 0 0 2 0 2 14 27 10 5 0 23
0 0 0 1 0 0 0 0 0 0 0 0 0 0 0 0 1 1 0 0 2 0 2 16 11 13 28
0 0 0 1 0 0 0 0 0 0 0 0 0 0 0 0 0 1 1 0 0 0 1 11 18 22 22
0 0 0 0 0 0 0 0 0 0 0 0 0 0 0 0 0 0 1 0 0 0 0 0 8 32 15
0 0 0 0 0 0 0 0 0 0 0 0 0 0 0 0 0 1 1 0 0 0 0 0 0 7 0
0 0 0 1 1 0 0 0 0 0 0 0 0 0 0 0 0 0 0 1 0 0 0 0 0 0 0
2 0 1 0 0 0 0 0 0 0 0 0 0 0 0 0 0 0 0 1 0 0 0 0 0 0 0
3 0 0 0 0 0 0 0 0 0 0 0 0 0 0 0 0 0 0 0 1 0 0 0 0 0 0
0 0 0 0 0 0 0 0 0 0 0 0 0 0 0 0 0 0 0 1 1 1 1 0 0 0 0
1 0 0 0 0 0 0 0 0 0 0 0 0 0 0 0 0 0 0 0 0 2 2 1 0 0 0
3 2 2 1 1 0 0 0 0 0 0 0 0 0 0 0 0 0 0 0 0 0 0 0 1 0 0
1 1 1 2 2 0 0 0 0 0 0 0 0 0 0 0 0 0 0 0 0 0 0 0 0 0 1
1 2 2 3 4 0 0 0 0 0 0 0 0 0 0 0 0 0 0 0 0 0 0 0 0 0 0
1 2 0 2 3 2 0 0 0 0 0 0 0 0 0 0 0 0 0 0 0 0 0 0 0 0 0
1 1 2 2 2 3 1 2 0 1 0 0 0 0 0 0 0 0 0 0 0 0 0 0 0 0 0
0 1 2 2 2 4 3 1 0 0 0 0 0 0 0 0 0 0 0 0 0 0 0 0 0 0 0
0 0 1 1 2 2 1 4 2 0 1 0 0 0 0 0 0 0 0 0 0 0 0 0 0 0 0
CIN
-0 -0 -0 -0 -0 -0 -0 -0 -0 -0 -0 -0 -0 -0 -0 -0 -0 -0 -0 -0 -10 -2 -0 -0 -13 -0 -1
-0 -0 -0 -0 -0 -0 -0 -0 -0 -0 -0 -0 -0 -0 -0 -0 -1 -1 -0 -0 -9 -0 -3 -2 -5 -6 -7
-0 -0 -0 -0 -0 -0 -0 -0 -0 -0 -0 -0 -0 -0 -0 -0 -0 -1 -0 -0 -0 -0 -12 -7 -1 -3 -0
-0 -0 -0 -0 -0 -0 -0 -0 -0 -0 -0 -0 -0 -0 -0 -0 -0 -0 -0 -0 -0 -0 -0 -2 -12 -0 -1
-0 -0 -0 -0 -0 -0 -0 -0 -0 -0 -0 -0 -0 -0 -0 -0 -0 -0 -0 -0 -0 -0 -0 -0 -2 -4 -10
-0 -0 -0 -0 -0 -0 -0 -0 -0 -0 -0 -0 -0 -0 -0 -0 -0 -0 -0 -0 -0 -0 -0 -0 -0 -0 -0
-35 -0 -0 -0 -0 -0 -0 -0 -0 -0 -0 -0 -0 -0 -0 -0 -0 -0 -0 -0 -0 -0 -0 -0 -0 -0 -0
-75 -0 -0 -0 -0 -0 -0 -0 -0 -0 -0 -0 -0 -0 -0 -0 -0 -0 -0 -0 -0 -0 -0 -0 -0 -0 -0
-0 -0 -0 -0 -0 -0 -0 -0 -0 -0 -0 -0 -0 -0 -0 -0 -0 -0 -0 -0 -0 -0 -0 -0 -0 -0 -0
-0 -0 -0 -0 -0 -0 -0 -0 -0 -0 -0 -0 -0 -0 -0 -0 -0 -0 -0 -0 -0 -0 -0 -0 -0 -0 -0
-0 -0 -0 -0 -0 -0 -0 -0 -0 -0 -0 -0 -0 -0 -0 -0 -0 -0 -0 -0 -0 -0 -0 -0 -0 -0 -0
-0 -0 -0 -0 -0 -0 -0 -0 -0 -0 -0 -0 -0 -0 -0 -0 -0 -0 -0 -0 -0 -0 -0 -0 -0 -0 -0
-0 -0 -0 -0 -0 -0 -0 -0 -0 -0 -0 -0 -0 -0 -0 -0 -0 -0 -0 -0 -0 -0 -0 -0 -0 -0 -0
-0 -0 -0 -0 -0 -0 -0 -0 -0 -0 -0 -0 -0 -0 -0 -0 -0 -0 -0 -0 -0 -0 -0 -0 -0 -0 -0
-0 -0 -0 -0 -0 -0 -0 -0 -0 -0 -0 -0 -0 -0 -0 -0 -0 -0 -0 -0 -0 -0 -0 -0 -0 -0 -0
-0 -0 -0 -0 -0 -0 -0 -0 -0 -0 -0 -0 -0 -0 -0 -0 -0 -0 -0 -0 -0 -0 -0 -0 -0 -0 -0
-0 -0 -0 -0 -0 -0 -0 -0 -0 -0 -0 -0 -0 -0 -0 -0 -0 -0 -0 -0 -0 -0 -0 -0 -0 -0 -0
Wind_Speed
25 22 20 19 19 19 18 18 19 19 20 22 25 25 22 19 18 21 23 24 21 19 12 9 10 7 4
28 25 24 22 21 21 21 20 22 21 21 23 24 24 21 19 18 17 20 22 21 18 11 4 6 8 5
30 27 27 24 25 24 23 24 23 23 22 24 24 22 20 19 18 16 17 19 17 14 8 6 4 8 5
31 29 29 27 26 26 28 26 26 23 24 24 22 19 18 18 17 15 13 15 14 10 11 13 9 7 3
33 32 31 30 28 29 29 27 26 26 27 25 22 19 17 17 17 16 14 14 13 10 10 12 8 4 1
33 34 32 30 26 28 30 30 33 25 25 24 21 19 18 15 16 17 13 12 10 10 12 11 6 4 7
33 34 33 32 31 31 29 32 30 25 24 24 19 19 17 15 13 12 12 10 10 10 7 6 6 6 8
33 34 33 31 30 31 28 28 27 25 21 23 19 18 15 15 13 11 9 9 7 6 5 5 7 8 8
32 32 30 29 29 28 27 24 31 26 19 22 18 17 16 16 13 11 9 6 5 4 4 7 8 9 11
29 27 25 28 27 27 26 26 22 22 21 19 17 16 19 18 14 10 7 6 7 6 5 6 8 12 16
33 31 27 26 22 24 23 24 23 24 16 16 19 18 19 17 10 9 7 7 8 8 9 11 13 12 15
28 28 27 28 27 22 18 19 18 21 17 19 20 18 17 17 13 10 11 12 9 7 8 10 14 16 15
31 31 29 26 21 18 18 16 18 17 14 15 17 15 15 14 14 14 14 14 12 12 11 12 14 15 15
34 30 28 26 26 23 24 21 21 20 16 15 16 16 17 18 19 17 17 15 13 13 14 15 15 15 15
37 36 32 31 31 27 24 23 25 21 19 16 15 16 18 17 17 14 11 13 15 17 17 18 19 19 18
41 39 37 34 33 32 31 28 24 22 18 18 12 13 18 17 12 13 12 16 16 16 17 19 21 20 19
43 41 41 43 41 38 31 28 27 21 20 14 14 16 16 16 13 10 11 15 16 16 17 17 20 18 18
Wind_Direction
283 283 281 284 289 293 300 305 310 314 321 325 327 330 332 334 335 328 324 322 324 325 336 351 352 7 88
278 279 282 281 285 288 294 300 305 310 315 321 324 328 331 332 335 333 326 323 323 323 336 354 358 2 58
276 280 283 281 284 287 291 296 300 305 312 317 320 324 326 328 330 331 329 325 324 330 337 333 348 339 4
274 278 280 282 279 283 287 291 296 302 307 313 318 320 323 325 326 329 329 327 325 328 328 320 315 312 343
273 276 277 278 272 283 285 289 294 296 301 305 311 313 319 322 324 327 330 329 327 326 328 320 317 199 256
269 271 270 273 278 279 282 285 287 289 296 299 306 307 315 321 321 324 328 335 340 341 332 329 325 307 311
269 270 272 272 273 276 275 285 282 290 293 294 301 304 310 315 318 323 326 331 333 332 350 357 338 323 315
271 273 273 276 270 272 274 283 284 292 290 289 298 299 306 310 314 313 316 325 335 344 349 343 330 320 311
273 274 271 269 269 273 273 270 281 281 273 287 290 295 298 302 308 313 312 318 327 329 334 325 321 315 308
276 272 265 265 261 262 265 258 272 277 273 270 279 289 296 298 305 318 323 320 322 324 326 315 312 309 301
278 274 268 261 251 263 263 261 263 272 275 268 279 284 293 304 311 313 321 319 318 318 322 315 307 304 299
280 274 265 265 259 253 249 256 264 272 267 273 285 284 287 293 304 305 307 307 314 314 315 312 304 300 298
278 272 267 265 251 248 253 252 263 271 267 274 278 280 285 291 296 297 298 302 305 308 312 308 303 300 295
281 277 271 258 248 247 249 251 258 263 271 273 271 270 279 284 287 295 296 304 305 306 303 303 302 300 296
279 273 267 256 247 248 249 249 259 255 260 267 274 278 283 288 289 292 293 298 300 300 302 301 298 297 295
277 273 267 257 251 250 251 252 252 252 253 258 262 279 286 294 290 295 297 295 296 298 299 298 297 296 295
276 273 268 260 255 251 249 249 250 254 255 250 252 268 278 287 306 290 298 295 295 297 298 298 300 304 301